This is the latest recevied weather packets stored in our database for station/object N6DZK. If no packets are shown the sender has not sent any weather packets the latest 10 day(s).
| Time | Temp. | Humidity | Pressure | Rain* | Wind** | Luminosity | Snow |
|---|---|---|---|---|---|---|---|
| 1777997958 | 13.89° C | 72% | 1016 hPa | 0 mm | - | 126 W/m² | - |
| 1777997655 | 13.89° C | 72% | 1015.9 hPa | 0 mm | - | 125 W/m² | - |
| 1777997353 | 13.89° C | 74% | 1015.9 hPa | 0 mm | - | 130 W/m² | - |
| 1777997051 | 13.33° C | 73% | 1015.8 hPa | 0 mm | - | 112 W/m² | - |
| 1777996747 | 13.33° C | 74% | 1016 hPa | 0 mm | - | 104 W/m² | - |
| 1777996443 | 13.33° C | 75% | 1016 hPa | 0 mm | - | 110 W/m² | - |
| 1777996140 | 12.78° C | 74% | 1015.9 hPa | 0 mm | - | 113 W/m² | - |
| 1777995835 | 12.78° C | 75% | 1016 hPa | 0 mm | - | 99 W/m² | - |
| 1777995532 | 12.78° C | 76% | 1015.9 hPa | 0 mm | - | 74 W/m² | - |
| 1777995229 | 12.78° C | 75% | 1015.9 hPa | 0 mm | - | 63 W/m² | - |
| 1777994926 | 12.78° C | 75% | 1015.8 hPa | 0 mm | - | 58 W/m² | - |
| 1777994623 | 12.78° C | 74% | 1015.9 hPa | 0 mm | - | 56 W/m² | - |
| 1777994317 | 12.78° C | 75% | 1015.7 hPa | 0 mm | - | 66 W/m² | - |
| 1777994014 | 12.78° C | 75% | 1015.6 hPa | 0 mm | - | 67 W/m² | - |
| 1777993711 | 12.78° C | 75% | 1015.8 hPa | 0 mm | - | 68 W/m² | - |
| 1777993408 | 12.78° C | 75% | 1015.6 hPa | 0 mm | - | 61 W/m² | - |
| 1777993103 | 12.78° C | 74% | 1015.8 hPa | 0 mm | - | 59 W/m² | - |
| 1777992801 | 12.78° C | 74% | 1015.6 hPa | 0 mm | - | 67 W/m² | - |
| 1777992499 | 12.78° C | 74% | 1015.7 hPa | 0 mm | - | 112 W/m² | - |
| 1777992197 | 12.78° C | 75% | 1015.6 hPa | 0 mm | - | 91 W/m² | - |
| 1777991893 | 12.78° C | 74% | 1015.6 hPa | 0 mm | - | 59 W/m² | - |
| 1777991591 | 12.22° C | 75% | 1015.7 hPa | 0 mm | - | 75 W/m² | - |
| 1777991288 | 12.22° C | 75% | 1015.7 hPa | 0 mm | - | 75 W/m² | - |
| 1777990986 | 12.22° C | 74% | 1015.5 hPa | 0 mm | - | 65 W/m² | - |
| 1777990683 | 12.22° C | 75% | 1015.5 hPa | 0 mm | - | 52 W/m² | - |
* Rain latest hour (hover to see other rain measurements)
** Current wind speed in m/s (hover to see current wind gust speed)